Regional Weather Roundup
Issued by NWS

Home | Current Version | Previous Version | Graphics & Text | Print | Product List | Glossary On
Versions: 1 2 3 4 5 6 7 8 9 10 11 12 13 14 15 16 17 18 19 20 21 22 23 24 25 26 27 28 29 30 31 32 33 34 35 36 37 38 39 40 41 42 43 44 45 46 47 48 49
000
ASUS45 KBOU 221607
RWRCO

WEATHER ROUNDUP FOR COLORADO
NATIONAL WEATHER SERVICE DENVER/BOULDER CO
1000 AM MDT TUE JUL 22 2014

NOTE: "FAIR" INDICATES FEW OR NO CLOUDS BELOW 12000 FEET WITH NO
SIGNIFICANT WEATHER AND/OR OBSTRUCTIONS TO VISIBILITY.

COZ001>005-013-030-031-221700-
...NORTHWEST COLORADO...

CITY           SKY/WX    TMP DP  RH WIND       PRES   REMARKS
CRAIG          SUNNY     68  45  43 CALM      30.40S
HAYDEN         SUNNY     72  37  28 SE5       30.42F
MEEKER         SUNNY     74  35  24 CALM      30.40F
MOUNT WERNER   NOT AVBL
STEAMBOAT SPGS SUNNY     67  41  37 CALM      30.44F
WALDEN         SUNNY     68  41  37 SE3       30.53S
$$

COZ006>008-011-221700-
...WEST CENTRAL VALLEYS...

CITY           SKY/WX    TMP DP  RH WIND       PRES   REMARKS
GRAND JUNCTION SUNNY     80  32  17 SE13      30.29S
MONTROSE       SUNNY     81  36  19 W5        30.38S
EAGLE          NOT AVBL
RIFLE          SUNNY     75  38  26 N5        30.36F
DELTA          SUNNY     79  31  17 CALM      30.34F
NUCLA          SUNNY     73  32  21 N5        30.41S
$$

COZ017>023-064>068-221700-
...SOUTHWEST COLORADO...

CITY           SKY/WX    TMP DP  RH WIND       PRES   REMARKS
DURANGO        SUNNY     78  37  22 CALM      30.40F
CORTEZ         SUNNY     80  38  22 CALM      30.34F
PAGOSA SPRINGS SUNNY     76  37  25 CALM      30.50S
TELLURIDE      SUNNY     72  32  23 CALM      30.61S
WOLF CREEK PAS NOT AVBL
$$

COZ009-010-012-014-032>034-037-058>063-221700-
...CENTRAL COLORADO...

CITY           SKY/WX    TMP DP  RH WIND       PRES   REMARKS
ASPEN          SUNNY     72  34  24 E3        30.52S
BUENA VISTA    SUNNY     74  31  20 CALM      30.53S
COPPER MTN     SUNNY     64  25  22 SW5       30.87S
BERTHOUD PASS  FAIR      54  39  58 CALM      30.92R
COTTONWOOD PAS SUNNY     75  19  12 CALM      30.68S
GUNNISON       SUNNY     63  37  39 CALM      30.59S
KREMMLING      SUNNY     66  37  34 CALM      30.53F
LEADVILLE      SUNNY     65  37  35 S3        30.68S
MONARCH PASS   SUNNY     59  28  31 W10       30.96S
SALIDA         SUNNY     73  41  31 CALM      30.57F
SUNLIGHT       SUNNY     68  30  24 CALM      30.77S
WILKERSON PASS SUNNY     64  28  25 S3        30.83S
$$

COZ069>075-221700-
...SAN LUIS VALLEY/SANGRE DE CRISTO MOUNTAINS...

CITY           SKY/WX    TMP DP  RH WIND       PRES   REMARKS
ALAMOSA        SUNNY     69  47  45 CALM      30.49S
LA VETA PASS   SUNNY     73  37  27 NE3       30.69S
SAGUACHE       SUNNY     70  45  40 S5        30.53S
$$

COZ035-036-038>040-221700-
...NORTHERN COLORADO FRONT RANGE...

CITY           SKY/WX    TMP DP  RH WIND       PRES   REMARKS
DENVER INTL AP MOSUNNY   77  52  41 NE13      30.35R
DMNS CITY PARK   N/A     78  51  38 NE8G18    30.34S
AURORA         MOSUNNY   76  52  43 NE13      30.37R
FRONT RANGE AP NOT AVBL
ERIE MUNI ARPT SUNNY     78  46  32 E8        30.33R
BOULDER MUN AP SUNNY     79  48  34 E6        30.32S
CENTENNIAL     MOSUNNY   75  48  38 N12       30.38R
BROOMFIELD     MOSUNNY   73  46  38 N6        30.35
FORT COLLINS   SUNNY     79  55  44 E7        30.32R
LONGMONT       SUNNY     81  49  32 E8        30.33R
$$

COZ041-046-047-076>085-087-088-221700-
...PIKES PEAK/PALMER DIVIDE AND SOUTHERN FOOTHILLS...

CITY           SKY/WX    TMP DP  RH WIND       PRES   REMARKS
COLO. SPRINGS  MOSUNNY   87  45  23 N12       30.35R
A. F. ACADEMY  SUNNY     82  45  27 N14       30.39R
ELLICOTT       SUNNY     87  45  23 NE17      30.33R
FALCON         SUNNY     82  46  27 N10       30.42R
FORT CARSON    SUNNY     87  47  24 N14       30.32R
LIMON          SUNNY     82  50  32 NE12G23   30.32R
MONUMENT HILL  SUNNY     73  43  33 NW12      30.44S
TRINIDAD       SUNNY     85  48  27 NW9       30.31R
$$

COZ042>045-048>051-090-091-221700-
...NORTHEAST COLORADO...

CITY           SKY/WX    TMP DP  RH WIND       PRES   REMARKS
GREELEY ARPT   SUNNY     77  55  47 NE13      30.31S
AKRON          SUNNY     82  55  39 E14       30.28R
BURLINGTON     SUNNY     84  58  40 NE14      30.21R
WRAY             N/A     86  55  34 E16G22    30.21R
STERLING       SUNNY     84  61  45 CALM      30.24R
HOLYOKE        SUNNY     84  57  39 E10       30.23R
FORT MORGAN    SUNNY     82  51  35 NE6       30.29S
$$

COZ086-089-092>099-221700-
...SOUTHEAST COLORADO...

CITY           SKY/WX    TMP DP  RH WIND       PRES   REMARKS
PUEBLO         SUNNY     85  48  27 W5        30.22S
LA JUNTA       SUNNY     80  60  50 S6        30.19R
LAMAR          SUNNY     83  61  47 N7        30.16R
SPRINGFIELD      N/A     82  60  47 NE5       30.20R
$$



USA.gov is the U.S. government's official web portal to all federal, state and local government web resources and services.